This is the latest recevied weather packets stored in our database for station/object KM4KBD. If no packets are shown the sender has not sent any weather packets the latest 10 day(s).
| Time | Temp. | Humidity | Pressure | Rain* | Wind** | Luminosity | Snow |
|---|---|---|---|---|---|---|---|
| 1777694103 | 6.67° C | 80% | 1023.6 hPa | 0 mm | - | 0 W/m² | - |
| 1777693801 | 6.67° C | 80% | 1023.5 hPa | 0 mm | - | 0 W/m² | - |
| 1777693499 | 6.67° C | 81% | 1023.6 hPa | 0 mm | - | 0 W/m² | - |
| 1777693198 | 6.67° C | 81% | 1023.5 hPa | 0 mm | - | 0 W/m² | - |
| 1777692895 | 6.67° C | 81% | 1023.4 hPa | 0 mm | - | 0 W/m² | - |
| 1777692591 | 6.67° C | 78% | 1023.6 hPa | 0 mm | - | 0 W/m² | - |
| 1777692288 | 6.67° C | 78% | 1023.7 hPa | 0 mm | - | 0 W/m² | - |
| 1777691985 | 6.67° C | 80% | 1023.5 hPa | 0 mm | - | 0 W/m² | - |
| 1777691684 | 7.22° C | 80% | 1023.6 hPa | 0 mm | - | 0 W/m² | - |
| 1777691381 | 6.67° C | 78% | 1023.7 hPa | 0 mm | - | 0 W/m² | - |
| 1777691079 | 6.67° C | 79% | 1023.5 hPa | 0 mm | - | 0 W/m² | - |
| 1777690777 | 7.22° C | 78% | 1023.4 hPa | 0 mm | - | 0 W/m² | - |
| 1777690474 | 7.22° C | 77% | 1023.3 hPa | 0 mm | - | 0 W/m² | - |
| 1777690171 | 7.78° C | 76% | 1023.5 hPa | 0 mm | - | 0 W/m² | - |
| 1777689870 | 7.78° C | 75% | 1023.2 hPa | 0 mm | - | 0 W/m² | - |
| 1777689568 | 7.78° C | 75% | 1023.4 hPa | 0 mm | - | 0 W/m² | - |
| 1777689265 | 7.78° C | 75% | 1023.3 hPa | 0 mm | - | 0 W/m² | - |
| 1777688962 | 7.78° C | 75% | 1023.4 hPa | 0 mm | - | 0 W/m² | - |
| 1777688658 | 7.78° C | 74% | 1023.3 hPa | 0 mm | - | 0 W/m² | - |
| 1777688355 | 8.33° C | 74% | 1023.3 hPa | 0 mm | - | 0 W/m² | - |
| 1777688053 | 8.33° C | 73% | 1023.3 hPa | 0 mm | - | 0 W/m² | - |
| 1777687750 | 8.89° C | 73% | 1023.1 hPa | 0 mm | - | 0 W/m² | - |
| 1777687448 | 8.33° C | 73% | 1023.1 hPa | 0 mm | - | 0 W/m² | - |
| 1777687144 | 8.33° C | 74% | 1022.9 hPa | 0 mm | - | 0 W/m² | - |
| 1777686841 | 8.33° C | 73% | 1023 hPa | 0 mm | - | 0 W/m² | - |
* Rain latest hour (hover to see other rain measurements)
** Current wind speed in m/s (hover to see current wind gust speed)